Weather History for KLEB - March, 2013

Change the Weather History Date:

Sunday, March 10, 2013

  Actual Average Record
Temperature  
Mean Temperature 36 °F -  
Max Temperature 54 °F 39 °F 65 °F (1977)
Min Temperature 19 °F 16 °F -11 °F (1972)
Degree Days  
Heating Degree Days 28    
Moisture  
Dew Point 23 °F    
Average Humidity 57    
Maximum Humidity 85    
Minimum Humidity 28    
Precipitation  
Precipitation 0.00 in - - ()
Sea Level Pressure  
Sea Level Pressure 30.30 in    
Wind  
Wind Speed 2 mph (South)    
Max Wind Speed 10 mph    
Max Gust Speed 20 mph    
Visibility 10 miles    
Events      
Averages and records for this station are not official NWS values.
T = Trace of Precipitation, MM = Missing Value Source: NWS Daily Summary

Daily Weather History Graph

Daily Weather History Graph

Search for Another Location

Airport or City:

Trip Planner

Search our weather history database for the weather conditions in past years. The results will help you decide how hot, cold, wet, or windy it might be!

Date:

Astronomy

Mar. 10, 2013 Rise Set
Actual Time 7:09 AM EDT 6:49 PM EDT
Civil Twilight 6:41 AM EDT 7:18 PM EDT
Nautical Twilight 6:08 AM EDT 7:51 PM EDT
Astronomical Twilight 5:34 AM EDT 8:25 PM EDT
Moon 6:09 AM EDT (3/10) 5:53 PM EDT (3/10)
Length of Visible Light 12h 36m
Length of Day
11h 39m
Waning Crescent, 2% of the Moon is Illuminated
Mar 10
Waning Crescent
Mar 11
New
Mar 19
First Quarter
Mar 27
Full
Apr 3
Last Quarter

Hourly Weather History & Observations

Time (EDT) Temp. Windchill Dew Point Humidity Pressure Visibility Wind Dir Wind Speed Gust Speed Precip Events Conditions
12:53 AM 26.1 °F - 19.9 °F 78% 30.36 in 10.0 mi Calm Calm - N/A   Clear
1:53 AM 23.0 °F - 18.0 °F 81% 30.36 in 10.0 mi Calm Calm - N/A   Clear
3:53 AM 21.9 °F - 18.0 °F 85% 30.36 in 10.0 mi Calm Calm - N/A   Clear
4:53 AM 21.9 °F - 17.1 °F 82% 30.35 in 10.0 mi Calm Calm - N/A   Clear
5:53 AM 19.9 °F - 16.0 °F 85% 30.36 in 10.0 mi Calm Calm - N/A   Clear
6:53 AM 21.0 °F - 17.1 °F 85% 30.39 in 10.0 mi Calm Calm - N/A   Clear
8:53 AM 26.1 °F - 21.0 °F 81% 30.40 in 10.0 mi Calm Calm - N/A   Clear
9:53 AM 33.1 °F - 24.1 °F 70% 30.39 in 10.0 mi Calm Calm - N/A   Clear
10:53 AM 37.9 °F - 23.0 °F 55% 30.37 in 10.0 mi Calm Calm - N/A   Clear
11:53 AM 42.1 °F - 23.0 °F 47% 30.34 in 10.0 mi Calm Calm - N/A   Clear
12:53 PM 46.0 °F - 24.1 °F 42% 30.31 in 10.0 mi Calm Calm - N/A   Clear
1:53 PM 50.0 °F - 25.0 °F 38% 30.29 in 10.0 mi SW 5.8 mph - N/A   Clear
2:53 PM 51.1 °F - 23.0 °F 33% 30.27 in 10.0 mi SW 10.4 mph - N/A   Clear
3:53 PM 52.0 °F - 21.0 °F 30% 30.25 in 10.0 mi SSW 8.1 mph 19.6 mph N/A   Clear
4:53 PM 54.0 °F - 21.0 °F 28% 30.23 in 10.0 mi SW 9.2 mph - N/A   Clear
5:53 PM 48.9 °F - 24.1 °F 38% 30.22 in 10.0 mi SSE 9.2 mph - N/A   Overcast
6:53 PM 48.0 °F - 24.1 °F 39% 30.22 in 10.0 mi SSE 5.8 mph - N/A   Scattered Clouds
7:53 PM 46.9 °F - 24.1 °F 41% 30.24 in 10.0 mi SE 4.6 mph - N/A   Overcast
8:53 PM 44.1 °F 40.1 °F 26.1 °F 49% 30.22 in 10.0 mi SSE 6.9 mph - N/A   Scattered Clouds
9:53 PM 42.1 °F - 27.0 °F 55% 30.24 in 10.0 mi Calm Calm - N/A   Clear
10:53 PM 43.0 °F 40.3 °F 26.1 °F 51% 30.22 in 10.0 mi South 4.6 mph - N/A   Scattered Clouds
11:53 PM 39.9 °F 36.7 °F 28.0 °F 63% 30.23 in 10.0 mi Variable 4.6 mph - N/A   Overcast
12:53 AM 39.9 °F - 28.0 °F 63% 30.24 in 10.0 mi Calm Calm - N/A   Scattered Clouds